Presure
111 154 96 97 109 114 109 141 132 176 123 357 371 348 326 535 503 469 446 431 430 426 440 429 444 445 458 468 334 166 276 305 288 307 301 279 305 269 259 238 217 177 204 196 201 184 183
141 164 110 108 118 101 132 139 141 231 182 234 366 177 192 537 389 456 435 442 451 447 439 436 435 450 438 439 249 315 294 284 247 270 293 298 308 299 330 244 197 238 168 169 147 187 183
152 152 95 94 105 112 130 97 118 182 158 239 341 355 289 457 512 485 446 449 456 456 445 430 453 445 423 441 455 319 301 276 285 277 279 305 268 330 273 252 228 177 226 204 70 193 179
167 163 103 113 128 109 103 120 117 184 251 238 230 350 261 426 437 509 467 448 444 430 421 417 432 440 429 418 442 318 300 286 282 274 283 282 298 307 303 391 221 236 167 217 211 205 188
161 152 132 102 117 130 125 134 156 144 268 313 352 347 343 396 382 510 495 465 448 444 444 415 428 442 434 423 435 334 300 284 271 281 275 277 297 274 334 287 234 235 214 166 199 196 195
163 167 139 158 111 124 121 146 145 137 259 310 225 257 332 339 361 474 517 454 445 440 457 451 453 442 417 419 438 383 302 287 276 259 281 291 279 287 321 334 283 226 196 227 194 194 187
136 171 130 145 129 123 101 140 151 170 229 293 354 260 334 314 333 406 454 478 473 452 433 454 455 429 447 427 421 396 307 290 274 262 259 282 306 283 283 200 278 260 231 198 189 208 200
142 152 139 130 131 137 140 94 154 155 224 296 357 341 285 317 336 327 402 458 456 463 456 428 423 428 445 457 458 397 311 290 270 268 334 270 270 310 288 298 319 265 232 231 218 214 212
175 132 131 126 116 154 123 162 147 204 218 174 183 298 326 317 311 351 365 349 384 381 379 389 419 432 410 383 403 372 307 283 279 270 255 301 284 275 297 304 318 330 344 231 231 239 195
136 153 151 163 115 135 151 128 129 151 271 213 219 241 154 314 355 308 326 324 323 376 360 348 357 357 353 351 338 367 312 284 267 272 292 267 309 278 284 287 300 319 317 296 233 233 239
134 152 126 149 145 150 148 216 130 127 194 213 287 347 324 310 292 312 301 314 307 329 346 339 329 328 322 333 352 346 262 285 293 270 278 270 259 306 275 292 307 314 336 363 288 228 234
134 169 138 109 163 120 138 145 124 151 226 256 248 156 330 298 301 297 295 322 306 326 320 335 327 329 336 345 341 326 379 310 292 286 290 268 269 270 300 282 309 302 319 330 293 384 236
135 135 151 138 151 139 147 152 129 152 209 161 165 153 337 319 293 296 300 323 294 311 301 323 312 311 311 313 345 339 359 353 307 309 299 294 309 278 289 287 278 298 325 347 352 341 336
139 102 135 116 141 145 148 162 164 125 147 204 181 236 340 159 307 292 289 277 312 316 320 295 302 319 302 301 296 294 305 321 326 293 332 328 289 333 300 265 292 271 289 300 304 354 394
157 126 133 112 96 143 157 142 164 133 135 152 200 158 199 163 312 293 298 293 289 311 313 294 297 302 296 293 316 302 287 290 289 285 314 325 319 313 318 315 297 323 282 321 327 359 341
121 136 128 114 132 142 128 139 178 136 149 202 256 156 351 347 186 274 296 288 274 296 305 309 308 289 278 281 279 300 267 271 296 299 294 313 313 310 304 299 298 314 325 324 345 310 368
141 118 123 117 129 142 128 143 168 189 141 146 169 194 286 352 325 307 300 301 296 246 306 310 295 291 296 276 279 278 276 275 267 263 267 277 291 289 300 301 303 309 291 320 319 336 357
149 140 143 162 135 137 113 134 167 159 154 142 262 223 196 356 336 317 295 297 285 281 285 280 296 294 289 284 274 269 275 275 271 278 268 277 271 276 279 288 287 289 301 303 312 318 333
122 152 137 129 129 104 141 137 149 138 155 141 175 190 346 366 341 328 310 253 281 202 273 265 273 292 297 299 294 286 280 275 276 275 276 276 276 283 280 280 282 277 289 282 291 294 308
116 131 140 140 134 132 150 139 123 125 140 152 225 233 187 380 253 332 314 118 298 296 293 278 266 274 253 261 274 284 295 288 285 278 276 272 270 269 271 262 267 301 283 292 284 281 286
123 162 137 123 137 120 144 152 146 234 186 113 256 192 144 167 216 334 327 262 297 291 295 285 270 270 259 260 260 260 265 261 262 279 284 289 286 273 272 268 263 274 282 273 276 282 281
120 111 118 128 119 137 137 147 122 151 128 140 190 152 132 159 166 174 319 305 299 284 304 276 285 274 266 260 266 258 260 254 259 262 259 266 269 275 283 280 276 271 260 263 269 269 274
117 131 124 137 134 119 174 177 125 226 127 132 170 145 221 151 186 161 172 318 300 292 297 304 290 281 271 263 261 260 255 253 253 256 269 267 256 262 269 269 272 284 292 270 269 272 270
127 127 132 141 122 130 132 146 136 142 132 209 201 118 250 287 153 160 230 316 311 290 289 301 309 297 281 274 260 262 262 261 253 259 261 271 268 264 257 255 273 268 277 289 276 269 272
129 126 133 139 125 151 192 129 203 182 188 148 126 236 179 194 227 175 141 314 296 298 289 300 294 295 302 291 281 273 266 263 265 256 252 262 263 266 276 279 262 260 277 265 276 289 289
125 124 138 117 142 143 180 112 134 151 146 115 237 178 210 414 166 135 137 137 141 229 291 282 285 302 289 295 311 302 291 280 271 263 263 249 273 260 262 265 294 289 256 268 271 265 274
128 134 121 129 147 95 146 160 141 149 154 176 198 197 198 257 271 123 127 206 171 300 287 288 278 290 283 285 291 313 312 306 294 284 270 263 259 264 255 259 265 307 290 256 259 274 258
124 136 121 146 147 144 142 125 121 188 142 237 129 172 178 139 133 128 149 326 228 300 275 289 283 282 276 280 284 288 284 287 299 306 288 277 257 271 252 243 254 292 303 278 257 257 266
127 121 134 198 135 140 113 114 136 262 144 141 179 250 278 121 151 128 124 136 127 302 289 287 277 273 274 279 274 274 271 276 275 284 290 291 265 268 263 248 244 241 255 297 300 259 254
Wind_Speed
25 49 36 40 44 45 45 52 51 74 52 79 84 85 84 39 27 17 19 19 20 21 17 17 20 38 40 51 88 40 88 87 86 82 84 100 93 113 118 121 117 93 118 116 122 111 115
44 57 33 42 42 42 46 51 55 93 69 92 89 45 69 53 72 22 24 20 19 16 15 17 19 31 41 52 60 86 88 85 70 76 84 87 83 103 91 124 100 123 91 88 70 114 112
51 54 33 24 47 46 49 44 55 71 56 95 90 91 80 72 49 19 23 19 12 6 5 6 13 32 40 40 45 90 90 89 87 86 86 78 106 80 112 126 123 93 122 117 13 118 106
62 60 35 34 29 49 45 49 57 75 106 97 83 92 81 71 75 24 18 16 10 4 2 6 7 23 40 40 43 92 90 87 86 87 85 89 87 86 103 64 119 124 84 124 119 120 115
63 55 23 43 37 43 44 52 65 61 109 122 89 89 90 78 80 47 17 10 11 7 2 1 8 25 38 41 41 94 91 88 93 84 87 90 82 101 68 105 119 123 112 80 111 115 120
68 67 52 59 44 44 51 59 59 57 112 105 88 72 90 88 78 64 32 22 19 13 8 7 8 27 39 39 40 80 91 90 90 89 88 81 89 88 69 63 91 117 105 124 109 113 108
40 70 28 43 26 38 33 61 67 78 104 114 77 66 85 90 84 63 56 35 23 18 17 14 24 19 30 31 40 72 88 86 86 90 89 82 66 80 84 87 99 126 130 99 101 122 116
55 62 45 25 27 34 53 28 74 73 103 124 73 77 73 83 76 78 61 39 32 36 36 42 35 31 31 32 42 67 85 85 91 82 51 84 82 61 84 83 80 104 124 126 112 118 119
64 30 34 48 38 54 38 81 70 97 98 77 81 76 77 78 80 58 52 59 60 63 67 64 48 51 53 48 35 68 84 87 87 95 75 61 79 83 72 73 70 72 70 125 121 125 100
53 69 67 80 42 42 55 45 55 77 117 99 86 72 51 74 49 74 65 62 60 50 52 53 62 48 50 48 51 47 81 79 82 83 74 84 58 80 81 83 81 71 78 95 123 123 123
49 63 50 62 36 45 49 92 57 57 90 99 125 62 67 69 78 65 70 62 62 49 47 48 47 43 26 41 42 51 45 73 80 82 78 74 71 54 77 77 71 72 64 53 100 123 122
55 66 55 38 84 35 48 60 53 81 101 108 108 76 57 61 63 65 63 46 53 42 40 47 41 38 13 18 38 44 48 69 69 70 65 73 75 69 59 71 66 70 65 64 90 59 123
58 48 74 38 72 43 57 61 45 78 99 84 84 75 49 50 60 58 57 42 44 34 40 37 34 40 43 41 34 27 33 44 52 52 59 63 56 71 68 68 64 58 51 47 54 71 82
63 23 45 28 50 61 58 82 85 57 74 96 84 70 50 68 45 52 50 55 29 27 22 32 27 38 28 32 30 29 26 31 30 40 33 35 54 29 54 60 60 59 60 59 61 47 44
56 50 45 37 36 69 81 51 88 57 56 87 92 74 80 61 37 45 38 39 37 23 19 25 23 19 17 15 28 24 20 23 27 32 21 25 26 28 27 26 41 33 51 44 47 41 54
46 54 49 25 43 68 46 52 99 45 74 93 98 82 48 30 68 45 34 35 35 27 18 16 14 17 19 13 14 12 11 15 14 13 14 18 24 26 30 33 36 32 33 34 33 48 37
58 32 39 26 41 71 38 69 97 72 65 77 85 89 81 32 28 27 28 22 20 35 13 9 11 10 8 10 7 5 4 5 9 10 9 9 14 15 16 14 18 22 35 24 29 27 33
57 64 68 69 63 62 31 54 95 86 86 75 103 96 90 30 23 22 27 21 24 23 15 15 6 4 4 5 4 3 5 6 8 8 10 10 12 13 14 10 14 14 20 18 21 20 22
50 61 63 58 54 33 74 60 54 62 80 65 80 86 59 28 26 20 17 27 23 32 22 24 15 2 6 12 13 8 7 6 7 8 11 11 10 11 14 15 20 22 17 28 22 21 21
42 47 64 68 69 60 82 70 36 58 67 79 96 89 82 26 47 23 18 37 14 11 11 14 18 10 19 14 4 1 10 11 13 11 12 13 15 14 17 22 20 20 21 21 26 32 30
52 52 62 53 73 43 81 87 80 82 62 32 97 85 57 58 53 25 20 18 16 15 13 11 12 13 17 14 14 12 6 4 3 7 14 21 23 18 18 21 22 18 21 25 24 28 32
52 36 51 64 52 74 75 76 26 87 41 73 91 62 53 53 57 61 22 21 16 17 16 16 15 12 15 15 14 12 12 12 9 10 10 10 11 14 22 24 25 30 33 33 35 35 30
49 58 58 66 70 48 75 84 46 80 43 55 88 60 83 50 41 54 61 21 20 17 15 19 19 18 17 16 16 14 14 14 14 14 16 17 14 15 19 19 18 25 32 37 38 40 42
56 59 61 66 47 68 64 76 54 72 57 83 87 38 87 84 46 46 43 24 23 19 17 16 21 21 19 20 18 17 18 18 15 18 17 19 21 22 20 18 22 27 22 28 41 41 41
55 56 61 65 61 77 74 61 73 75 81 63 38 89 78 66 59 38 41 26 18 21 21 18 16 19 22 23 23 24 23 22 23 19 18 20 21 23 25 28 27 24 24 27 26 28 36
52 55 63 53 72 67 76 27 74 94 82 39 96 85 83 29 28 35 41 49 46 26 24 20 17 15 17 17 20 22 24 25 25 22 21 19 23 24 24 24 25 32 25 26 29 28 26
52 57 45 59 70 19 81 80 81 48 67 76 68 77 62 85 27 27 36 33 39 26 24 23 21 17 16 15 14 18 17 20 22 22 23 22 20 23 23 23 22 20 27 29 29 31 32
51 58 51 67 69 71 72 57 45 59 78 88 45 53 55 23 29 30 30 38 20 30 26 27 23 19 17 14 12 11 13 14 13 18 22 22 22 22 22 19 19 20 17 33 31 30 29
49 52 61 70 66 71 39 36 81 96 89 42 92 97 106 19 38 29 32 42 29 34 30 29 24 22 19 15 14 14 15 17 16 15 14 20 23 23 25 25 19 19 20 22 26 34 33
Wind_Direction
325 331 342 349 326 330 337 344 337 348 353 351 354 358 355 349 338 318 316 307 294 286 264 244 232 217 215 212 204 214 209 205 209 209 209 207 209 208 207 211 214 218 215 214 214 216 218
331 330 320 323 333 351 338 344 346 352 351 355 355 352 349 7 356 335 329 310 301 271 263 250 218 192 209 212 206 198 203 206 211 210 210 209 208 208 211 210 216 213 220 220 219 215 219
332 329 340 349 325 322 337 349 323 352 355 356 356 358 354 8 7 344 340 336 341 260 249 213 208 193 202 194 203 194 198 203 205 208 209 211 208 211 208 208 213 219 215 216 236 216 220
327 332 323 325 344 322 338 324 318 354 353 357 0 358 357 2 4 357 342 344 6 355 218 197 203 188 192 193 196 193 194 197 203 208 209 211 211 210 210 213 213 214 223 215 217 216 222
329 336 340 321 339 337 329 340 351 344 355 2 359 358 1 5 4 13 2 12 12 1 278 257 199 183 168 184 184 192 189 192 201 205 209 211 213 209 211 209 211 214 218 222 219 217 221
327 330 325 341 328 326 322 352 350 338 351 2 2 353 2 3 9 19 24 29 29 35 49 93 130 165 178 184 178 187 188 190 199 210 210 210 210 211 213 215 214 213 222 218 220 220 222
342 329 329 354 345 325 329 358 357 358 355 4 358 354 2 3 7 29 26 40 47 62 74 91 118 128 163 178 171 182 186 187 196 210 214 212 208 213 212 215 212 208 217 218 221 219 223
335 333 330 351 1 353 5 353 360 360 355 3 358 358 359 4 8 11 38 38 57 73 86 87 95 107 121 133 148 176 184 185 196 205 208 212 213 208 213 214 217 213 215 222 223 222 221
329 346 335 339 321 351 346 354 0 352 356 1 359 359 1 2 6 21 44 37 65 74 72 71 93 109 110 115 135 177 185 189 192 207 217 209 212 214 215 218 220 220 219 220 224 225 225
337 331 336 332 324 341 359 333 337 3 2 357 1 359 352 1 21 9 17 23 32 72 79 79 75 100 117 134 154 172 186 191 205 208 207 216 207 218 218 219 220 221 218 220 225 226 227
338 330 326 338 9 336 8 351 330 334 358 357 359 357 357 0 0 9 11 18 24 39 78 83 86 86 102 152 154 169 197 194 196 212 214 219 223 214 221 223 223 223 224 230 223 228 230
333 329 335 310 333 323 344 345 331 3 2 0 359 358 355 359 359 3 8 32 24 41 47 81 85 97 121 137 174 180 172 191 197 206 205 221 225 225 223 226 229 228 228 231 223 231 229
331 333 329 350 341 350 5 2 343 4 349 358 357 357 354 356 356 0 6 20 22 22 29 82 91 99 104 107 121 143 168 180 196 207 213 214 218 229 230 233 229 231 238 235 234 228 228
326 311 331 315 353 354 353 343 346 330 2 353 356 352 355 354 352 357 1 4 32 30 55 50 69 105 117 127 138 146 145 158 177 205 183 201 226 211 232 236 240 232 235 236 235 240 235
321 333 331 325 325 334 337 2 347 346 354 358 356 352 352 348 349 351 0 3 9 32 51 41 65 92 91 108 127 153 180 188 199 206 182 185 195 204 206 217 230 227 229 236 237 236 235
331 325 340 303 351 339 354 1 336 359 2 356 353 348 345 336 348 349 352 358 359 10 40 64 87 59 67 85 94 127 100 125 135 156 171 184 193 197 209 219 227 225 224 228 234 234 233
319 328 342 311 354 334 356 345 334 338 354 359 351 354 353 324 331 340 343 347 356 359 30 44 65 77 118 67 74 90 90 117 134 150 177 197 191 191 200 200 223 235 232 235 232 238 234
315 321 323 322 338 349 314 360 330 344 348 0 355 357 352 321 319 328 336 338 346 350 351 9 59 87 98 132 132 129 187 179 166 175 185 190 191 200 197 201 214 219 233 230 232 232 237
324 313 323 336 342 302 337 347 352 349 348 357 347 354 346 313 311 309 315 341 339 356 343 347 353 57 170 194 212 209 208 209 225 195 188 190 190 199 194 206 211 209 213 216 217 219 236
328 320 320 322 330 337 327 339 340 341 335 352 344 348 353 303 345 300 301 347 306 295 285 322 333 334 348 348 16 217 230 229 237 237 234 222 212 203 201 209 216 216 206 212 215 219 223
321 319 322 327 325 337 326 326 334 352 346 347 351 343 347 349 347 291 281 308 301 300 270 275 306 301 327 322 325 324 312 312 281 238 243 249 244 229 221 214 214 218 216 214 216 222 225
318 328 329 324 332 324 330 324 344 333 358 357 333 344 345 350 347 349 282 289 287 302 252 304 265 277 287 302 288 301 296 309 296 275 262 239 238 237 238 238 231 221 215 215 219 218 222
319 312 321 318 321 326 329 323 325 352 5 356 337 344 342 341 339 348 345 266 269 276 262 246 251 258 269 279 284 289 292 296 295 292 271 260 255 236 237 236 233 234 231 223 222 225 221
309 312 315 313 320 326 326 328 330 327 337 351 344 339 344 350 342 344 324 265 255 276 269 253 247 243 250 258 275 273 272 275 283 284 283 267 258 258 255 244 240 235 229 226 227 231 229
303 312 312 314 321 312 324 328 339 322 336 347 326 341 338 342 333 343 353 261 279 257 263 251 250 249 242 244 248 254 261 264 265 271 276 278 268 263 255 249 251 245 235 230 231 232 232
306 311 308 321 314 318 323 341 324 319 326 317 345 335 336 308 334 355 358 354 355 323 257 261 253 243 243 243 248 247 248 249 252 256 259 266 264 266 265 259 254 244 242 237 234 232 232
303 304 312 315 309 315 312 318 318 330 328 348 343 336 342 345 301 347 354 325 343 245 250 248 256 242 248 244 242 251 253 253 251 250 248 252 259 258 265 270 271 253 235 240 238 234 234
303 303 310 308 307 311 311 324 327 341 323 351 333 353 332 325 340 347 334 248 288 241 258 244 248 249 253 250 250 254 253 257 260 255 250 250 253 256 258 260 269 264 240 235 241 239 234
300 306 308 310 312 308 325 337 316 334 321 337 319 340 350 330 338 348 342 355 336 239 238 242 244 251 249 253 260 264 265 267 268 266 258 250 249 253 250 257 259 261 262 243 237 243 242